1501236000.15,9194,19.5,73740.0,14.91,5.19,4.89,0,*7D
1501236001.34,9195,19.5,73740.3,14.91,4.81,4.49,0,*70
1501236002.54,9196,19.5,73742.3,14.91,4.81,4.45,0,*7F
1501236003.76,9197,19.5,73736.5,14.91,4.59,4.19,0,*72
1501236004.97,9198,19.5,73740.5,14.91,4.89,4.45,0,*79
1501236006.16,9199,19.5,73740.5,14.87,4.49,4.11,0,*72
1501236007.34,9200,19.5,73742.8,14.89,4.89,4.41,0,*76
1501236008.54,9201,19.5,73742.0,14.89,4.45,4.05,0,*77
1501236009.74,9202,19.5,73740.3,14.89,3.63,3.23,0,*74
1501236010.96,9203,19.5,73742.8,14.87,3.53,2.95,0,*74
1501236012.16,9204,19.5,73738.0,14.87,2.35,1.75,0,*7F
1501236013.39,9205,19.5,73742.0,14.83,1.75,1.17,0,*79
1501236014.59,9206,19.5,73738.8,14.81,1.79,1.21,0,*71
1501236015.82,9207,19.5,73736.8,14.79,1.83,1.21,0,*72
1501236017.01,9208,19.5,73736.5,14.77,1.89,1.41,0,*7F
1501236018.26,9209,19.5,73736.5,14.75,1.29,0.91,0,*4A
1501236019.49,9210,19.5,73734.0,14.69,0.87,0.29,0,*79
1501236020.7,9211,19.56,73740.3,14.67,0.95,0.43,0,*79
1501236021.94,9212,19.5,73734.3,14.63,0.87,0.29,0,*71
1501236023.2,9213,19.5,73734.5,14.59,1.55,0.91,0,*44
1501236024.4,9214,19.5,73734.3,14.57,1.05,0.59,0,*4C
1501236025.63,9215,19.56,73738.8,14.55,1.17,1.01,0,*70
1501236026.88,9216,19.5,73736.5,14.55,1.97,1.97,0,*74
1501236028.11,9217,19.5,73736.0,14.53,2.25,2.01,0,*75
1501236029.35,9218,19.5,73738.3,14.49,1.43,1.09,0,*79
1501236030.56,9219,19.5,73736.8,14.45,0.59,0.01,0,*47
1501236031.77,9220,19.5,73738.3,14.43,1.51,0.95,0,*4F
1501236032.99,9221,19.5,73736.8,14.43,2.13,1.51,0,*72
1501236034.24,9222,19.56,73738.3,14.41,1.93,1.09,0,*75
1501236035.42,9223,19.5,73736.0,14.39,1.75,1.01,0,*7B
1501236036.64,9224,19.56,73738.0,14.39,2.09,1.43,0,*72
1501236037.86,9225,19.5,73738.8,14.37,2.61,1.93,0,*7E
1501236039.05,9226,19.56,73736.3,14.35,2.09,1.41,0,*7E
1501236040.28,9227,19.56,73738.0,14.35,1.97,1.29,0,*75
1501236041.48,9228,19.56,73738.3,14.35,2.17,1.41,0,*7F
1501236042.7,9229,19.56,73736.5,14.35,2.39,1.55,0,*77
1501236043.9,9230,19.56,73740.0,14.35,1.97,1.05,0,*7D
1501236045.1,9231,19.56,73736.3,14.35,1.79,0.91,0,*40
1501236046.29,9232,19.56,73738.3,14.35,0.95,0.09,0,*41
1501236047.51,9233,19.56,73738.0,14.31,1.59,0.67,0,*4D
1501236048.7,9234,19.56,73736.3,14.31,1.93,0.97,0,*43
1501236049.93,9235,19.56,73742.0,14.33,1.75,0.83,0,*4D
1501236051.15,9236,19.56,73738.0,14.31,1.59,0.63,0,*4C
1501236052.4,9237,19.56,73736.3,14.33,2.39,1.55,0,*7E
1501236053.63,9238,19.56,73738.0,14.33,1.55,0.43,0,*4E
1501236054.8,9239,19.56,73736.3,14.31,0.97,-0.07,0,*6F
1501236055.98,9240,19.56,73740.3,14.31,1.01,-0.07,0,*5F
1501236057.21,9241,19.56,73742.0,14.31,1.33,0.41,0,*40
1501236058.41,9242,19.56,73738.0,14.31,1.41,0.51,0,*47
1501236059.64,9243,19.56,73738.8,14.31,2.09,1.33,0,*7C
1501236060.87,9244,19.56,73738.8,14.27,2.09,1.29,0,*77
1501236062.07,9245,19.56,73738.0,14.31,2.69,1.83,0,*77
1501236063.29,9246,19.56,73736.3,14.31,2.69,1.71,0,*79
1501236064.53,9247,19.56,73738.0,14.33,2.69,1.67,0,*7D
1501236065.79,9248,19.56,73736.0,14.33,3.07,2.01,0,*78
1501236067.02,9249,19.56,73738.5,14.35,3.11,2.13,0,*7B
1501236068.27,9250,19.56,73738.5,14.37,2.85,1.93,0,*76
1501236069.52,9251,19.56,73740.8,14.41,1.97,1.09,0,*75
1501236070.74,9252,19.56,73736.5,14.39,1.71,0.79,0,*47
1501236071.94,9253,19.56,73738.0,14.39,1.75,0.87,0,*43
1501236073.16,9254,19.56,73736.8,14.39,1.09,0.13,0,*42
1501236074.36,9255,19.56,73736.5,14.39,1.75,0.79,0,*44
1501236075.58,9256,19.56,73740.5,14.39,2.09,1.25,0,*77
1501236076.81,9257,19.56,73738.5,14.39,1.33,0.41,0,*4F
1501236078.03,9258,19.56,73736.5,14.39,0.91,0.25,0,*7B
1501236079.25,9259,19.56,73738.3,14.39,1.25,0.75,0,*41
1501236080.5,9260,19.56,73740.3,14.41,1.47,1.37,0,*77
1501236081.75,9261,19.56,73742.0,14.41,2.25,2.47,0,*75
1501236083.0,9262,19.56,73738.5,14.41,3.03,3.07,0,*76
1501236084.24,9263,19.63,73740.8,14.45,3.33,3.11,0,*77
1501236085.49,9264,19.56,73736.8,14.45,3.71,3.49,0,*7B
1501236086.74,9265,19.56,73736.8,14.45,3.97,3.49,0,*72
1501236087.97,9266,19.56,73738.8,14.49,4.31,3.89,0,*7A
1501236089.2,9267,19.63,73740.5,14.49,4.11,3.71,0,*7E
1501236090.41,9268,19.63,73742.3,14.53,4.15,3.75,0,*7A
1501236091.59,9269,19.63,73740.5,14.53,4.33,3.93,0,*77
1501236092.82,9270,19.63,73740.5,14.55,4.27,3.75,0,*74
1501236094.05,9271,19.56,73738.0,14.55,4.59,4.23,0,*78
1501236095.27,9272,19.63,73740.3,14.59,4.19,3.97,0,*7B
1501236096.48,9273,19.56,73740.5,14.59,3.59,3.29,0,*7C
1501236097.68,9274,19.63,73742.5,14.57,2.43,2.27,0,*70
1501236098.88,9275,19.56,73736.3,14.57,2.43,2.35,0,*72
1501236100.11,9276,19.63,73740.0,14.57,2.85,2.89,0,*7C
1501236101.33,9277,19.56,73740.5,14.59,3.63,3.53,0,*7C
1501236102.51,9278,19.56,73740.0,14.57,2.95,2.65,0,*71
1501236103.76,9279,19.63,73742.0,14.55,3.41,3.03,0,*7B
1501236104.96,9280,19.56,73738.3,14.53,1.89,1.41,0,*79
1501236106.19,9281,19.56,73736.3,14.53,2.47,2.01,0,*7E
1501236107.36,9282,19.56,73736.3,14.53,2.95,2.35,0,*75
1501236108.6,9283,19.56,73742.0,14.53,3.03,2.51,0,*78
1501236109.82,9284,19.56,73740.3,14.55,2.31,1.97,0,*70
1501236111.02,9285,19.56,73742.5,14.53,1.75,1.59,0,*76
1501236112.25,9286,19.63,73742.5,14.49,1.75,1.85,0,*7F
1501236113.47,9287,19.56,73736.0,14.49,2.09,2.35,0,*7E
1501236114.72,9288,19.56,73740.8,14.49,2.21,2.59,0,*71
1501236115.94,9289,19.56,73736.3,14.49,2.81,3.25,0,*70
1501236117.15,9290,19.56,73740.3,14.53,2.91,3.07,0,*72
1501236118.39,9291,19.56,73740.5,14.55,2.85,3.23,0,*76
1501236119.63,9292,19.56,73736.3,14.55,3.53,3.53,0,*78
1501236120.89,9293,19.56,73736.5,14.55,3.03,2.69,0,*74
1501236122.09,9294,19.56,73740.0,14.57,3.25,2.69,0,*75
1501236123.34,9295,19.56,73738.3,14.59,3.41,3.03,0,*75
1501236124.55,9296,19.56,73740.0,14.61,2.99,2.77,0,*7B
1501236125.78,9297,19.56,73740.5,14.59,2.99,2.81,0,*78
1501236127.01,9298,19.56,73736.8,14.59,3.75,3.59,0,*70
1501236128.27,9299,19.56,73738.0,14.59,3.41,3.41,0,*7F
1501236129.5,9300,19.56,73734.3,14.59,3.59,3.71,0,*74
1501236130.72,9301,19.56,73736.0,14.63,3.55,3.75,0,*74
1501236131.95,9302,19.56,73736.5,14.63,3.29,3.67,0,*7F
1501236133.19,9303,19.56,73734.5,14.63,2.73,3.33,0,*71
1501236134.45,9304,19.56,73732.5,14.63,2.69,3.41,0,*78
1501236135.67,9305,19.56,73738.5,14.63,2.61,3.33,0,*74
1501236136.93,9306,19.56,73734.8,14.63,3.15,4.01,0,*73
1501236138.16,9307,19.56,73734.8,14.63,3.89,4.71,0,*70
1501236139.34,9308,19.56,73734.8,14.65,4.15,4.85,0,*70
1501236140.56,9309,19.56,73738.3,14.67,4.31,4.89,0,*79
1501236141.78,9310,19.56,73738.0,14.69,4.05,4.57,0,*7B
1501236142.95,9311,19.56,73736.3,14.69,4.41,4.81,0,*71
1501236144.16,9312,19.56,73734.8,14.69,3.93,4.31,0,*71
1501236145.37,9313,19.56,73734.8,14.69,3.75,4.11,0,*7A
1501236146.58,9314,19.56,73736.0,14.69,2.91,3.15,0,*75
1501236147.77,9315,19.56,73736.5,14.69,2.21,2.31,0,*78
1501236149.0,9316,19.56,73734.8,14.67,2.77,2.65,0,*77
1501236150.17,9317,19.56,73738.3,14.65,2.99,2.65,0,*74
1501236151.4,9318,19.56,73738.3,14.63,3.41,2.95,0,*76
1501236152.63,9319,19.56,73736.8,14.63,3.07,2.31,0,*7B
1501236153.85,9320,19.56,73736.5,14.63,2.59,1.79,0,*74
1501236155.1,9321,19.56,73740.8,14.63,2.51,1.47,0,*70
1501236156.27,9322,19.56,73736.5,14.61,1.75,1.01,0,*76
1501236157.51,9323,19.56,73736.5,14.61,1.09,0.47,0,*4F
1501236158.73,9324,19.56,73736.8,14.59,1.01,0.37,0,*4C
1501236159.95,9325,19.56,73740.0,14.57,0.83,0.25,0,*7B
1501236161.17,9326,19.56,73736.5,14.57,0.87,0.47,0,*78
1501236162.34,9327,19.56,73736.3,14.57,1.41,0.97,0,*4F
1501236163.55,9328,19.56,73736.8,14.57,0.59,0.21,0,*75
1501236164.77,9329,19.56,73734.3,14.57,0.55,0.47,0,*78
1501236165.97,9330,19.56,73736.8,14.57,0.97,1.17,0,*4A
1501236167.22,9331,19.56,73738.5,14.59,1.47,1.59,0,*73
1501236168.46,9332,19.56,73738.0,14.59,0.59,0.83,0,*78
1501236169.7,9333,19.56,73744.5,14.63,0.41,0.91,0,*7A
1501236170.91,9334,19.56,73740.0,14.63,0.43,1.13,0,*44
1501236172.12,9335,19.56,73742.8,14.65,0.47,1.29,0,*4E
1501236173.34,9336,19.56,73742.8,14.71,0.97,1.97,0,*40
1501236174.55,9337,19.56,73742.8,14.77,1.43,2.61,0,*75
1501236175.74,9338,19.56,73740.0,14.81,1.25,2.31,0,*76
1501236176.97,9339,19.56,73740.0,14.81,1.43,2.81,0,*7C
1501236178.19,9340,19.56,73740.3,14.85,0.63,2.13,0,*4E
1501236179.41,9341,19.56,73736.8,14.93,1.47,3.07,0,*7B
1501236180.65,9342,19.56,73742.5,14.95,2.17,3.81,0,*76
1501236181.85,9343,19.56,73736.0,15.01,1.43,3.25,0,*77
1501236183.1,9344,19.56,73736.8,15.03,0.41,2.21,0,*44
1501236184.32,9345,19.56,73736.8,15.07,-0.19,1.67,0,*60
1501236185.56,9346,19.56,73738.5,15.07,0.17,2.09,0,*4B
1501236186.8,9347,19.56,73736.8,15.11,0.63,2.59,0,*4B
1501236188.06,9348,19.56,73736.8,15.11,1.13,3.15,0,*7B
1501236189.31,9349,19.56,73742.0,15.15,2.09,3.53,0,*74
1501236190.57,9350,19.56,73740.0,15.21,1.55,3.07,0,*70
1501236191.82,9351,19.56,73738.5,15.21,0.79,2.01,0,*49
1501236193.07,9352,19.56,73742.0,15.25,0.91,2.43,0,*4E
1501236194.27,9353,19.56,73740.5,15.27,1.41,2.73,0,*72
1501236195.5,9354,19.56,73740.3,15.29,1.63,2.95,0,*73
1501236196.75,9355,19.56,73746.0,15.33,1.47,2.77,0,*73
1501236197.96,9356,19.56,73740.8,15.33,0.41,1.75,0,*46
1501236199.2,9357,19.56,73740.5,15.37,0.25,1.25,0,*44
1501236200.41,9358,19.56,73740.8,15.35,0.29,0.91,0,*7B
1501236201.62,9359,19.56,73744.5,15.35,0.67,1.71,0,*4F
1501236202.83,9360,19.56,73740.8,15.37,0.17,0.97,0,*79
1501236204.05,9361,19.56,73742.8,15.37,0.91,1.79,0,*47
1501236205.26,9362,19.56,73742.3,15.39,0.83,1.63,0,*42
1501236206.48,9363,19.56,73744.3,15.39,0.59,1.33,0,*41
1501236207.69,9364,19.56,73740.5,15.43,0.79,1.47,0,*4A
1501236208.92,9365,19.56,73740.0,15.43,1.25,1.71,0,*76
1501236210.12,9366,19.56,73744.5,15.45,0.75,1.01,0,*40
1501236211.38,9367,19.56,73746.0,15.45,1.29,1.51,0,*7C
1501236212.6,9368,19.56,73746.8,15.45,1.83,2.01,0,*75
1501236213.79,9369,19.56,73742.8,15.47,1.83,2.21,0,*74
1501236215.02,9370,19.56,73740.5,15.47,2.01,2.43,0,*71
1501236216.25,9371,19.56,73744.3,15.51,2.27,2.59,0,*78
1501236217.45,9372,19.56,73746.8,15.53,2.27,2.43,0,*72
1501236218.67,9373,19.56,73746.3,15.53,2.21,2.21,0,*71
1501236219.89,9374,19.56,73744.8,15.57,0.87,1.21,0,*4F
1501236221.09,9375,19.56,73744.0,15.57,1.01,1.47,0,*71
1501236222.31,9376,19.56,73744.0,15.57,0.91,1.47,0,*4A
1501236223.53,9377,19.56,73746.5,15.57,0.75,1.37,0,*46
1501236224.77,9378,19.56,73744.0,15.59,1.17,1.79,0,*78
1501236225.98,9379,19.56,73744.0,15.61,0.59,1.21,0,*44
1501236227.22,9380,19.56,73746.0,15.63,0.75,1.55,0,*4D
1501236228.39,9381,19.56,73742.8,15.61,0.33,0.97,0,*73
1501236229.58,9382,19.56,73746.0,15.61,0.13,1.05,0,*48
1501236230.8,9383,19.56,73742.0,15.63,-0.37,0.75,0,*56
1501236231.99,9384,19.56,73744.8,15.61,-0.03,1.37,0,*53
1501236233.21,9385,19.56,73742.5,15.63,0.59,2.27,0,*40
1501236234.42,9386,19.56,73744.3,15.63,0.43,2.39,0,*47
1501236235.64,9387,19.56,73744.5,15.69,1.25,3.23,0,*77
1501236236.87,9388,19.56,73742.5,15.71,2.27,3.71,0,*77
1501236238.08,9389,19.56,73746.0,15.69,2.73,3.67,0,*79
1501236239.3,9390,19.56,73742.3,15.73,2.77,3.49,0,*72
1501236240.5,9391,19.56,73744.5,15.73,2.95,3.49,0,*7F
1501236241.69,9392,19.56,73742.3,15.73,2.61,3.23,0,*7B
1501236242.89,9393,19.56,73746.0,15.77,2.61,3.41,0,*7A
1501236244.14,9394,19.56,73740.0,15.79,2.13,3.07,0,*74
1501236245.33,9395,19.56,73740.8,15.81,1.83,2.99,0,*7E
1501236246.58,9396,19.56,73744.8,15.81,1.71,3.07,0,*76
1501236247.78,9397,19.56,73746.5,15.83,2.51,3.81,0,*7A
1501236249.0,9398,19.56,73744.8,15.85,3.03,4.11,0,*7B
1501236250.22,9399,19.56,73744.3,15.85,3.29,3.97,0,*7B
1501236251.42,9400,19.56,73744.0,15.89,2.61,2.91,0,*7A
1501236252.62,9401,19.56,73744.8,15.89,3.93,3.93,0,*74
1501236253.84,9402,19.56,73744.3,15.89,2.91,2.47,0,*7C
1501236255.08,9403,19.56,73742.8,15.89,2.09,1.59,0,*70
1501236256.27,9404,19.56,73744.8,15.91,2.77,2.35,0,*7E
1501236257.46,9405,19.56,73746.0,15.93,2.95,2.65,0,*74
1501236258.65,9406,19.56,73746.3,15.93,2.65,2.35,0,*7D
1501236259.88,9407,19.56,73744.0,15.95,2.17,2.39,0,*73
1501236261.08,9408,19.56,73744.3,15.95,3.29,3.41,0,*7E
1501236262.25,9409,19.56,73746.3,15.99,4.33,4.49,0,*70
1501236263.43,9410,19.56,73742.3,15.99,4.27,4.33,0,*70
1501236264.63,9411,19.56,73742.0,16.03,4.19,4.31,0,*7E
1501236265.8,9412,19.56,73742.5,16.03,3.93,4.27,0,*7F
1501236266.97,9413,19.56,73742.0,16.03,1.83,1.83,0,*76
1501236268.19,9414,19.56,73744.5,16.03,2.25,2.51,0,*72
1501236269.41,9415,19.56,73742.8,16.03,2.47,2.89,0,*72
1501236270.63,9416,19.56,73742.3,16.03,2.85,3.33,0,*7F
1501236271.85,9417,19.56,73744.5,16.05,2.99,3.75,0,*77
1501236273.07,9418,19.56,73742.3,16.07,2.55,3.15,0,*7C
1501236274.29,9419,19.56,73740.8,16.05,1.93,2.91,0,*7B
1501236275.51,9420,19.56,73742.0,16.07,2.43,3.37,0,*70
1501236276.73,9421,19.56,73742.3,16.07,1.47,2.47,0,*70
1501236277.99,9422,19.56,73740.8,16.05,1.21,2.43,0,*75
1501236279.21,9423,19.56,73740.8,16.05,1.79,2.69,0,*71
1501236280.43,9424,19.56,73744.3,16.03,1.93,2.77,0,*7B
1501236281.62,9425,19.56,73744.8,16.03,2.73,3.29,0,*7D
1501236282.83,9426,19.56,73742.0,16.03,3.49,3.79,0,*73
1501236284.03,9427,19.56,73746.3,16.03,2.65,2.77,0,*72
1501236285.25,9428,19.56,73740.8,16.03,2.77,2.51,0,*7A
1501236286.43,9429,19.56,73744.8,16.03,3.89,3.29,0,*75
1501236287.62,9430,19.56,73742.0,16.03,3.81,2.73,0,*7B
1501236288.87,9431,19.56,73744.0,16.05,3.75,2.55,0,*73
1501236290.11,9432,19.56,73746.0,16.05,2.69,1.29,0,*74
1501236291.36,9433,19.56,73742.3,16.05,2.43,1.33,0,*76
1501236292.61,9434,19.56,73742.0,16.05,1.85,0.83,0,*42
1501236293.84,9435,19.56,73740.8,16.05,1.43,0.83,0,*49
1501236295.03,9436,19.56,73742.3,16.03,1.05,0.95,0,*49
1501236296.26,9437,19.56,73742.5,16.03,1.09,1.09,0,*70
1501236297.48,9438,19.56,73742.5,16.03,1.33,1.17,0,*79
1501236298.71,9439,19.56,73742.3,16.03,1.17,1.17,0,*7E
1501236299.89,9440,19.56,73738.5,16.03,0.83,0.43,0,*7C
1501236301.11,9441,19.56,73738.0,16.01,1.79,1.29,0,*76
1501236302.32,9442,19.56,73742.5,16.03,1.43,0.79,0,*4A
1501236303.54,9443,19.63,73742.5,16.03,1.17,0.55,0,*44
1501236304.7,9444,19.56,73742.8,16.03,0.09,-0.65,0,*63
1501236305.9,9445,19.56,73742.8,16.03,-0.93,-1.75,0,*4C
1501236307.11,9446,19.56,73740.0,16.01,-1.29,-2.27,0,*79
1501236308.33,9447,19.63,73742.5,15.99,-2.59,-3.71,0,*7C
1501236309.53,9448,19.63,73744.5,15.97,-2.19,-3.35,0,*79
1501236310.76,9449,19.56,73738.3,15.93,-1.87,-3.03,0,*7D
1501236311.96,9450,19.56,73740.5,15.89,-1.59,-2.95,0,*73
1501236313.17,9451,19.56,73738.8,15.89,-1.33,-2.79,0,*7C
1501236314.41,9452,19.63,73744.0,15.89,-1.17,-2.67,0,*76
1501236315.65,9453,19.56,73740.3,15.89,-1.17,-2.71,0,*70
1501236316.88,9454,19.63,73742.8,15.83,-2.11,-3.67,0,*7E
1501236318.09,9455,19.63,73744.5,15.83,-1.63,-3.43,0,*7F
1501236319.28,9456,19.63,73742.8,15.81,-0.61,-2.39,0,*41
1501236320.51,9457,19.63,73744.3,15.81,-1.13,-2.91,0,*76
1501236321.72,9458,19.63,73742.0,15.79,-0.57,-2.31,0,*45
1501236322.93,9459,19.63,73744.3,15.81,-1.25,-3.03,0,*77
1501236324.12,9460,19.63,73746.5,15.83,-1.25,-2.99,0,*7D
1501236325.33,9461,19.63,73742.8,15.81,-0.41,-2.23,0,*4C
1501236326.56,9462,19.63,73744.0,15.81,-1.05,-2.79,0,*71
1501236327.76,9463,19.63,73740.8,15.83,-1.55,-3.43,0,*7F
1501236328.98,9464,19.56,73742.3,15.81,-1.75,-3.67,0,*7E
1501236330.22,9465,19.56,73740.3,15.79,-1.43,-3.35,0,*7A
1501236331.45,9466,19.63,73746.0,15.81,-1.01,-2.91,0,*77
1501236332.68,9467,19.56,73742.8,15.79,-1.39,-3.23,0,*72
1501236333.88,9468,19.56,73742.5,15.79,-2.15,-4.09,0,*7F
1501236335.11,9469,19.63,73744.0,15.81,-1.75,-3.43,0,*75
1501236336.31,9470,19.63,73742.0,15.81,-1.51,-3.27,0,*79
1501236337.52,9471,19.56,73740.3,15.79,-1.51,-3.35,0,*7C
1501236338.75,9472,19.63,73744.5,15.79,-1.05,-2.79,0,*77
1501236339.95,9473,19.63,73744.3,15.81,-0.65,-2.43,0,*4F
1501236341.19,9474,19.63,73744.8,15.81,-1.17,-2.75,0,*79
1501236342.4,9475,19.56,73742.0,15.81,-1.25,-3.11,0,*7A
1501236343.6,9476,19.63,73744.0,15.81,-1.55,-3.39,0,*74
1501236344.84,9477,19.63,73742.8,15.81,-2.11,-3.87,0,*73
1501236346.04,9478,19.63,73740.5,15.81,-1.67,-3.27,0,*74
1501236347.29,9479,19.63,73744.3,15.81,-1.91,-3.63,0,*7C
1501236348.53,9480,19.63,73740.3,15.81,-1.47,-3.11,0,*74
1501236349.76,9481,19.63,73744.5,15.81,-1.87,-3.31,0,*7B
1501236350.99,9482,19.63,73742.8,15.85,-1.99,-3.39,0,*7B
1501236352.21,9483,19.63,73740.8,15.83,-1.99,-3.27,0,*73
1501236353.38,9484,19.63,73742.0,15.83,-1.51,-2.79,0,*7A
1501236354.6,9485,19.63,73742.8,15.83,-1.25,-2.55,0,*76
1501236355.83,9486,19.63,73742.3,15.85,-0.57,-1.83,0,*4F
1501236357.0,9487,19.63,73744.0,15.91,-0.03,-1.17,0,*77
1501236358.18,9488,19.63,73742.0,15.95,0.59,-0.57,0,*5B
1501236359.39,9489,19.63,73744.8,15.99,0.33,-0.85,0,*55
1501236360.61,9490,19.63,73744.5,16.01,0.47,-0.77,0,*51
1501236361.79,9491,19.63,73742.3,16.03,-1.17,-2.15,0,*7D
1501236363.02,9492,19.63,73746.5,16.07,-1.09,-2.11,0,*71
1501236364.2,9493,19.63,73744.0,16.11,-0.29,-1.17,0,*41
1501236365.44,9494,19.63,73744.3,16.13,-0.69,-1.43,0,*41
1501236366.66,9495,19.63,73744.3,16.17,-1.63,-2.23,0,*7A
1501236367.87,9496,19.63,73748.0,16.17,-2.35,-2.91,0,*70
1501236369.09,9497,19.63,73742.8,16.15,-3.63,-4.13,0,*7D
1501236370.34,9498,19.63,73744.0,16.17,-3.59,-4.13,0,*79
1501236371.55,9499,19.63,73746.3,16.17,-2.91,-3.35,0,*7E
1501236372.76,9500,19.63,73744.3,16.17,-2.39,-2.91,0,*72
1501236373.98,9501,19.63,73742.3,16.19,-3.43,-3.75,0,*7A
1501236375.19,9502,19.63,73744.0,16.19,-3.19,-3.47,0,*77
1501236376.43,9503,19.63,73744.8,16.17,-2.59,-2.91,0,*77
1501236377.62,9504,19.63,73744.5,16.19,-3.11,-3.35,0,*7C
1501236378.85,9505,19.63,73744.8,16.19,-2.75,-2.95,0,*75
1501236380.08,9506,19.63,73742.8,16.21,-2.67,-2.91,0,*7A
1501236381.3,9507,19.63,73744.8,16.21,-3.15,-3.27,0,*73
1501236382.52,9508,19.63,73746.3,16.21,-2.19,-2.31,0,*77
1501236383.71,9509,19.63,73746.5,16.23,-2.91,-2.99,0,*76
1501236384.9,9510,19.63,73746.0,16.23,-3.11,-3.03,0,*75
1501236386.15,9511,19.63,73744.0,16.23,-2.75,-2.63,0,*70
1501236387.37,9512,19.63,73744.8,16.27,-2.83,-2.75,0,*79
1501236388.62,9513,19.63,73744.8,16.27,-1.99,-1.87,0,*7E
1501236389.84,9514,19.63,73744.0,16.31,-1.95,-1.75,0,*7F
1501236391.06,9515,19.63,73746.3,16.31,-2.19,-2.07,0,*7F
1501236392.28,9516,19.63,73746.3,16.31,-2.19,-2.03,0,*78
1501236393.54,9517,19.63,73746.0,16.37,-1.43,-1.43,0,*74
1501236394.78,9518,19.63,73742.5,16.37,-1.55,-1.35,0,*7D
1501236395.98,9519,19.63,73742.8,16.41,-0.29,-0.03,0,*43
1501236397.23,9520,19.63,73742.8,16.45,-1.39,-1.39,0,*75
1501236398.45,9521,19.63,73742.3,16.47,-3.19,-2.83,0,*74
1501236399.69,9522,19.63,73744.8,16.47,-2.83,-2.47,0,*7D
1501236400.9,9523,19.63,73746.8,16.49,-0.93,-0.41,0,*75
1501236402.12,9524,19.63,73742.3,16.49,-1.67,-1.09,0,*75
1501236403.3,9525,19.63,73742.0,16.53,-1.29,-0.53,0,*4B
1501236404.53,9526,19.63,73742.5,16.59,-1.75,-0.89,0,*4C
1501236405.78,9527,19.69,73744.3,16.59,-3.11,-1.99,0,*7D
1501236406.97,9528,19.63,73742.8,16.61,-2.35,-1.29,0,*75
1501236408.2,9529,19.69,73746.8,16.63,-1.47,-0.29,0,*41
1501236409.44,9530,19.69,73742.0,16.65,-2.55,-1.39,0,*7F
1501236410.68,9531,19.69,73746.0,16.67,-3.71,-2.39,0,*78
1501236411.91,9532,19.69,73742.5,16.67,-3.91,-2.35,0,*79
1501236413.15,9533,19.69,73746.3,16.67,-4.17,-2.47,0,*74
1501236414.34,9534,19.63,73740.5,16.65,-4.09,-2.27,0,*78
1501236415.55,9535,19.69,73742.3,16.65,-4.45,-2.51,0,*70
1501236416.75,9536,19.69,73744.3,16.65,-4.69,-2.79,0,*77
1501236417.96,9537,19.69,73744.5,16.65,-4.81,-2.43,0,*79
1501236419.17,9538,19.69,73746.0,16.63,-4.25,-2.19,0,*71
1501236420.41,9539,19.69,73744.3,16.63,-4.61,-2.67,0,*79
1501236421.67,9540,19.69,73744.3,16.63,-4.85,-2.71,0,*7A
1501236422.9,9541,19.69,73744.3,16.61,-7.27,-5.15,0,*77
1501236424.18,9542,19.69,73742.3,16.59,-7.65,-5.31,0,*7F
1501236425.43,9543,19.69,73746.5,16.51,-8.41,-5.81,0,*74
1501236426.62,9544,19.69,73744.3,16.49,-6.55,-3.91,0,*76
1501236427.87,9545,19.69,73746.5,16.47,-5.15,-2.39,0,*7D
1501236429.11,9546,19.69,73746.0,16.49,-5.15,-2.47,0,*79
1501236430.35,9547,19.69,73746.5,16.47,-6.59,-3.63,0,*7A
1501236431.54,9548,19.69,73746.5,16.45,-6.39,-3.31,0,*76
1501236432.73,9549,19.69,73746.0,16.45,-7.15,-3.87,0,*75
1501236433.92,9550,19.69,73744.5,16.45,-6.13,-2.91,0,*7C
1501236435.16,9551,19.69,73744.8,16.43,-6.93,-3.47,0,*79
1501236436.35,9552,19.69,73742.8,16.43,-6.81,-3.35,0,*7C
1501236437.6,9553,19.69,73746.3,16.39,-8.11,-4.73,0,*72
1501236438.81,9554,19.69,73740.3,16.39,-7.95,-4.41,0,*77
1501236440.03,9555,19.69,73742.5,16.33,-6.69,-2.99,0,*7D
1501236441.28,9556,19.69,73742.0,16.33,-5.61,-1.79,0,*78
1501236442.5,9557,19.69,73746.5,16.33,-6.13,-2.35,0,*74
1501236443.71,9558,19.69,73744.8,16.33,-6.89,-3.15,0,*7B
1501236444.96,9559,19.69,73746.5,16.33,-6.01,-2.11,0,*7F
1501236446.18,9560,19.69,73742.8,16.31,-6.81,-2.71,0,*79
1501236447.4,9561,19.69,73740.0,16.31,-6.73,-2.55,0,*73
1501236448.66,9562,19.69,73742.0,16.31,-6.93,-2.71,0,*78
1501236449.91,9563,19.69,73740.3,16.29,-6.35,-2.07,0,*7D
1501236451.15,9564,19.69,73742.0,16.29,-6.69,-2.11,0,*74
1501236452.38,9565,19.69,73744.8,16.29,-6.47,-1.95,0,*76
1501236453.61,9566,19.69,73740.8,16.27,-7.01,-2.23,0,*76
1501236454.83,9567,19.69,73738.8,16.23,-6.73,-1.91,0,*7D
1501236456.04,9568,19.69,73742.8,16.23,-6.27,-1.51,0,*7F
1501236457.23,9569,19.69,73740.5,16.23,-5.47,-0.53,0,*48
1501236458.45,9570,19.69,73742.8,16.23,-5.31,-0.11,0,*47
1501236459.66,9571,19.69,73738.0,16.23,-2.79,2.21,0,*51
1501236460.92,9572,19.69,73742.8,16.29,-1.09,3.79,0,*50
1501236462.13,9573,19.69,73742.3,16.33,1.05,5.45,0,*72
1501236463.36,9574,19.69,73742.8,16.41,3.11,6.93,0,*7F
1501236464.62,9575,19.69,73742.0,16.47,4.31,7.19,0,*7E
1501236465.87,9576,19.69,73744.8,16.51,3.33,5.73,0,*71
1501236467.07,9577,19.69,73744.5,16.53,2.25,4.19,0,*79
1501236468.27,9578,19.69,73742.3,16.53,2.39,4.19,0,*7B
1501236469.52,9579,19.69,73744.8,16.59,2.05,3.97,0,*7E
1501236470.74,9580,19.69,73744.3,16.63,1.75,3.53,0,*7D
1501236471.99,9581,19.69,73740.0,16.63,0.63,2.51,0,*49
1501236473.24,9582,19.69,73744.0,16.63,0.91,3.03,0,*41
1501236474.48,9583,19.69,73740.8,16.63,0.95,3.07,0,*40
1501236475.71,9584,19.69,73746.5,16.63,1.75,3.79,0,*71
1501236476.94,9585,19.69,73746.3,16.65,2.89,4.97,0,*71
1501236478.14,9586,19.69,73746.8,16.65,4.05,5.71,0,*79
1501236479.35,9587,19.69,73746.3,16.69,4.59,5.95,0,*77
1501236480.53,9588,19.69,73744.5,16.69,4.33,5.63,0,*7D
1501236481.75,9589,19.69,73746.3,16.69,3.53,4.71,0,*7F
1501236482.98,9590,19.69,73742.8,16.69,2.43,3.75,0,*74
1501236484.21,9591,19.69,73742.8,16.69,3.41,4.79,0,*7D
1501236485.42,9592,19.69,73742.0,16.67,4.33,5.45,0,*7C
1501236486.65,9593,19.69,73742.8,16.67,4.67,5.49,0,*70
1501236487.86,9594,19.69,73740.5,16.67,5.33,6.03,0,*7A
1501236489.07,9595,19.69,73742.0,16.65,4.75,5.23,0,*7B
1501236490.28,9596,19.75,73746.0,16.67,4.81,5.23,0,*71
1501236491.49,9597,19.75,73744.8,16.67,5.33,5.49,0,*74
1501236492.69,9598,19.69,73746.3,16.65,6.03,6.13,0,*75
1501236493.93,9599,19.69,73744.5,16.67,6.51,6.29,0,*78
1501236495.16,9600,19.75,73746.5,16.69,6.35,6.17,0,*7A
1501236496.4,9601,19.69,73742.5,16.71,5.89,5.67,0,*72
1501236497.6,9602,19.69,73744.0,16.71,5.67,5.67,0,*71
1501236498.79,9603,19.75,73746.8,16.73,4.89,5.11,0,*72
1501236499.98,9604,19.69,73740.3,16.75,5.45,6.11,0,*71
1501236501.22,9605,19.75,73744.8,16.75,6.73,7.79,0,*79
1501236502.41,9606,19.75,73746.3,16.85,8.05,9.29,0,*71
1501236503.64,9607,19.69,73742.0,16.89,7.87,9.29,0,*79
1501236504.86,9608,19.75,73744.5,16.93,8.05,9.49,0,*7E
1501236506.03,9609,19.75,73744.3,16.99,7.97,9.33,0,*7C
1501236507.23,9610,19.75,73744.3,17.07,8.33,9.67,0,*72
1501236508.49,9611,19.75,73746.0,17.11,8.13,9.15,0,*73
1501236509.69,9612,19.75,73744.0,17.19,8.19,9.75,0,*74
1501236510.95,9613,19.75,73742.8,17.23,8.59,10.37,0,*46
1501236512.18,9614,19.75,73742.0,17.33,8.33,10.57,0,*4A
1501236513.39,9615,19.75,73746.8,17.43,8.61,11.13,0,*4A
1501236514.62,9616,19.75,73742.3,17.51,9.81,12.43,0,*43
1501236515.85,9617,19.75,73744.5,17.59,10.19,12.77,0,*74
1501236517.05,9618,19.75,73744.5,17.67,9.99,12.47,0,*45
1501236518.26,9619,19.75,73744.0,17.73,8.79,10.89,0,*4E
1501236519.52,9620,19.75,73746.8,17.81,6.87,8.55,0,*7E
1501236520.77,9621,19.75,73744.3,17.85,7.19,8.51,0,*79
1501236522.0,9622,19.75,73744.8,17.85,7.29,8.29,0,*76
1501236523.19,9623,19.75,73744.3,17.87,7.29,8.09,0,*77
1501236524.39,9624,19.75,73744.3,17.87,7.51,8.33,0,*76
1501236525.61,9625,19.75,73748.3,17.91,6.39,7.23,0,*71